Weather History for Kendall, FL

Change the Weather History Date:

Monday, March 11, 2013

  Actual Average Record
Temperature  
Mean Temperature 70 °F -  
Max Temperature 79 °F 79 °F 89 °F (2003)
Min Temperature 62 °F 56 °F 40 °F (1991)
Cooling Degree Days 5    
Growing Degree Days 20 (Base 50)    
Moisture  
Dew Point 60 °F    
Average Humidity 68    
Maximum Humidity 84    
Minimum Humidity 50    
Precipitation  
Precipitation 0.00 in - - ()
Sea Level Pressure  
Sea Level Pressure 30.03 in    
Wind  
Wind Speed 7 mph (SE)    
Max Wind Speed 15 mph    
Max Gust Speed 25 mph    
Visibility 10 miles    
Events Rain    
Averages and records for this station are not official NWS values.
T = Trace of Precipitation, MM = Missing Value Source: NWS Daily Summary

Daily Weather History Graph

Daily Weather History Graph

Search for Another Location

Airport:

Trip Planner

Search our weather history database for the weather conditions in past years. The results will help you decide how hot, cold, wet, or windy it might be!

Date:

Astronomy

Mar. 11, 2013 Rise Set
Actual Time 7:34 AM EDT 7:28 PM EDT
Civil Twilight 7:11 AM EDT 7:51 PM EDT
Nautical Twilight 6:45 AM EDT 8:18 PM EDT
Astronomical Twilight 6:18 AM EDT 8:45 PM EDT
Moon 7:10 AM EDT (3/11) 7:33 PM EDT (3/11)
Length of Visible Light 12h 39m
Length of Day
11h 54m
Waning Crescent, 0% of the Moon is Illuminated
Mar 11
Waning Crescent
Mar 11
New
Mar 19
First Quarter
Mar 27
Full
Apr 3
Last Quarter

Hourly Weather History & Observations

Time (EDT) Temp. Dew Point Humidity Pressure Visibility Wind Dir Wind Speed Gust Speed Precip Events Conditions
12:53 AM 62.1 °F 55.9 °F 80% 30.10 in 10.0 mi Calm Calm - N/A   Clear
1:53 AM 66.0 °F 59.0 °F 78% 30.08 in 10.0 mi ESE 6.9 mph - N/A   Clear
2:53 AM 66.9 °F 59.0 °F 76% 30.06 in 10.0 mi SE 4.6 mph - N/A   Clear
3:53 AM 68.0 °F 61.0 °F 78% 30.04 in 10.0 mi ESE 6.9 mph - N/A   Overcast
4:05 AM 69.8 °F 60.8 °F 73% 30.04 in 10.0 mi ESE 8.1 mph - 0.00 in Rain Light Rain
4:29 AM 69.8 °F 60.8 °F 73% 30.03 in 10.0 mi ESE 8.1 mph - 0.00 in   Overcast
4:53 AM 68.0 °F 62.1 °F 81% 30.03 in 10.0 mi ESE 10.4 mph 19.6 mph 0.00 in Rain Light Rain
5:53 AM 68.0 °F 61.0 °F 78% 30.02 in 10.0 mi East 6.9 mph - 0.00 in   Overcast
6:53 AM 70.0 °F 57.9 °F 65% 30.02 in 10.0 mi ESE 6.9 mph - N/A   Overcast
7:53 AM 68.0 °F 59.0 °F 73% 30.04 in 10.0 mi ESE 5.8 mph - N/A   Mostly Cloudy
8:53 AM 70.0 °F 60.1 °F 71% 30.06 in 10.0 mi SE 5.8 mph - N/A   Scattered Clouds
9:53 AM 73.9 °F 59.0 °F 59% 30.06 in 10.0 mi SE 13.8 mph 18.4 mph N/A   Mostly Cloudy
10:53 AM 75.9 °F 59.0 °F 56% 30.06 in 10.0 mi SE 15.0 mph 25.3 mph N/A   Mostly Cloudy
11:53 AM 75.0 °F 59.0 °F 57% 30.06 in 10.0 mi ESE 13.8 mph 23.0 mph N/A   Mostly Cloudy
12:53 PM 75.0 °F 57.9 °F 55% 30.05 in 10.0 mi SE 11.5 mph 21.9 mph N/A   Overcast
1:53 PM 78.1 °F 57.9 °F 50% 30.03 in 10.0 mi SE 13.8 mph - N/A   Mostly Cloudy
2:53 PM 75.9 °F 60.1 °F 58% 30.03 in 10.0 mi ESE 11.5 mph - N/A   Overcast
3:53 PM 77.0 °F 60.1 °F 56% 30.02 in 10.0 mi SSE 8.1 mph 18.4 mph N/A   Overcast
4:53 PM 75.9 °F 61.0 °F 60% 30.01 in 10.0 mi SE 11.5 mph - N/A   Overcast
5:53 PM 75.0 °F 60.1 °F 60% 29.98 in 10.0 mi ESE 12.7 mph - N/A   Mostly Cloudy
6:53 PM 73.4 °F 60.8 °F 65% 29.97 in 10.0 mi SE 13.8 mph 20.7 mph N/A   Partly Cloudy
7:53 PM 71.1 °F 61.0 °F 70% 29.98 in 10.0 mi SE 8.1 mph - N/A   Clear
8:53 PM 70.0 °F 61.0 °F 73% 30.00 in 10.0 mi SE 5.8 mph - N/A   Partly Cloudy
9:53 PM 68.0 °F 62.1 °F 81% 30.01 in 10.0 mi ESE 4.6 mph - N/A   Mostly Cloudy
10:53 PM 66.9 °F 62.1 °F 84% 30.02 in 10.0 mi ESE 4.6 mph - N/A   Clear